Location: *
(0.1100°N, 5.5000°E)
Time: 15:29:28
(UTC+00:00)

FUSE - Visible Passes

Search period start: 31 May 2023 00:00
Search period end: 10 June 2023 00:00
Orbit: 741 x 755 km, 25.0° (Epoch: 30 May)

Date Brightness Start Highest point End Pass type
(mag) Time Alt. Az. Time Alt. Az. Time Alt. Az.
31 May 5.2 18:06:14 10° NW 18:10:55 31° NNE 18:15:36 10° E visible
31 May 4.9 19:51:56 10° WNW 19:55:35 43° W 19:55:35 43° W visible
01 Jun 6.1 04:50:59 10° SSW 04:54:00 15° SSE 04:57:02 10° ESE visible
01 Jun 3.8 19:04:48 10° WNW 19:10:09 87° SSW 19:11:28 53° ESE visible
02 Jun 6.1 04:05:10 11° S 04:06:47 12° SSE 04:08:52 10° SE visible
02 Jun 4.0 18:17:43 10° WNW 18:23:04 73° NNE 18:27:21 16° ESE visible
02 Jun 6.0 20:04:48 10° W 20:07:03 21° WSW 20:07:03 21° WSW visible
03 Jun 5.2 05:01:35 10° SW 05:06:19 32° SSE 05:11:04 10° E visible
03 Jun 4.8 19:17:22 10° W 19:22:16 36° SSW 19:22:57 35° S visible
04 Jun 5.4 04:16:39 18° SSW 04:19:11 26° SSE 04:23:34 10° E visible
04 Jun 4.6 18:30:01 10° W 18:35:09 46° SSW 18:38:50 18° SE visible
05 Jun 5.7 03:32:32 20° SSE 03:32:32 20° SSE 03:35:58 10° ESE visible
05 Jun 5.9 19:31:08 10° WSW 19:34:26 17° SSW 19:34:26 17° SSW visible
06 Jun 4.2 04:28:08 23° SW 04:31:21 59° SSE 04:36:36 10° ENE visible
06 Jun 5.7 18:43:23 10° WSW 18:47:22 21° SSW 18:50:19 14° SSE visible
07 Jun 4.4 03:44:01 46° SSE 03:44:15 46° SSE 03:49:21 10° E visible
07 Jun 5.5 17:55:46 10° W 18:00:12 26° SSW 18:04:38 10° SSE visible
08 Jun 6.0 02:59:53 22° ESE 02:59:53 22° ESE 03:02:01 10° E visible
08 Jun 4.3 04:39:36 18° W 04:43:26 57° NNW 04:48:40 10° NE visible
09 Jun 3.9 03:55:26 59° W 03:56:21 73° NNW 04:01:39 10° ENE visible
09 Jun 6.2 18:10:26 10° SW 18:12:36 12° SSW 18:14:46 10° S visible
